Time,TemperatureF,DewpointF,PressureIn,WindDirection,WindDirectionDegrees,WindSpeedMPH,WindSpeedGustMPH,Humidity,HourlyPrecipIn,Conditions,Clouds,dailyrainin,SoftwareType,DateUTC
2013-05-18 00:04:00,75.4,68.4,29.74,SSE,158,0.0,2.9,79,0.29,,---,0.57,VWS V13.01,2013-05-18 04:04:00,
2013-05-18 00:09:00,75.6,68.6,29.73,South,180,6.3,6.3,79,0.26,,---,0.57,VWS V13.01,2013-05-18 04:09:00,
2013-05-18 00:14:00,75.6,68.6,29.73,ESE,112,2.5,6.3,79,0.35,,---,0.65,VWS V13.01,2013-05-18 04:14:00,
2013-05-18 00:19:00,75.6,68.2,29.73,SSE,158,7.2,7.2,78,0.24,,---,0.65,VWS V13.01,2013-05-18 04:19:00,
2013-05-18 00:24:00,75.0,67.7,29.73,ESE,112,3.8,7.2,78,0.29,,---,0.69,VWS V13.01,2013-05-18 04:24:00,
2013-05-18 00:29:00,75.0,67.7,29.73,ESE,112,3.8,3.8,78,0.45,,---,0.86,VWS V13.01,2013-05-18 04:29:00,
2013-05-18 00:34:00,75.0,67.7,29.73,South,180,0.0,3.8,78,0.47,,---,0.88,VWS V13.01,2013-05-18 04:34:00,
2013-05-18 00:44:00,75.2,67.9,29.73,SSE,158,3.8,3.8,78,0.47,,---,0.88,VWS V13.01,2013-05-18 04:44:00,
2013-05-18 00:49:00,75.4,68.1,29.73,ESE,112,0.0,3.8,78,0.47,,---,0.88,VWS V13.01,2013-05-18 04:49:00,
2013-05-18 00:59:00,75.7,68.4,29.73,SE,135,0.0,0.0,78,0.31,,---,0.88,VWS V13.01,2013-05-18 04:59:00,
2013-05-18 01:04:00,75.7,68.4,29.73,SE,135,0.0,0.0,78,0.31,,---,0.88,VWS V13.01,2013-05-18 05:04:00,
2013-05-18 01:09:00,75.7,68.4,29.72,SE,135,0.0,0.0,78,0.22,,---,0.88,VWS V13.01,2013-05-18 05:09:00,
2013-05-18 01:19:00,75.9,68.6,29.72,South,180,0.0,2.9,78,0.18,,---,0.88,VWS V13.01,2013-05-18 05:19:00,
2013-05-18 01:29:00,75.9,68.6,29.72,SSE,158,0.0,1.1,78,0.02,,---,0.88,VWS V13.01,2013-05-18 05:29:00,
2013-05-18 01:34:00,75.9,68.6,29.72,SSE,158,0.0,0.7,78,0.00,,---,0.88,VWS V13.01,2013-05-18 05:34:00,
2013-05-18 01:44:00,75.9,68.6,29.71,SSE,158,1.1,1.1,78,0.00,,---,0.88,VWS V13.01,2013-05-18 05:44:00,
2013-05-18 01:49:00,75.9,68.6,29.71,SSE,158,0.0,1.1,78,0.00,,---,0.88,VWS V13.01,2013-05-18 05:49:00,
2013-05-18 01:59:00,75.9,68.2,29.71,SSE,158,0.0,0.0,77,0.00,,---,0.88,VWS V13.01,2013-05-18 05:59:00,
2013-05-18 02:09:00,75.9,68.2,29.71,SSE,158,0.9,1.1,77,0.00,,---,0.88,VWS V13.01,2013-05-18 06:09:00,
2013-05-18 02:14:00,75.9,68.2,29.71,SSE,158,0.9,0.9,77,0.00,,---,0.88,VWS V13.01,2013-05-18 06:14:00,
2013-05-18 02:24:00,75.9,68.2,29.71,South,180,0.0,0.0,77,0.00,,---,0.88,VWS V13.01,2013-05-18 06:24:00,
2013-05-18 02:34:00,75.7,68.0,29.71,SSE,158,0.0,0.0,77,0.00,,---,0.88,VWS V13.01,2013-05-18 06:34:00,
2013-05-18 02:39:00,75.7,68.0,29.71,SSE,158,0.0,0.7,77,0.00,,---,0.88,VWS V13.01,2013-05-18 06:39:00,
2013-05-18 02:49:00,75.7,68.0,29.70,SSE,158,1.3,1.3,77,0.00,,---,0.88,VWS V13.01,2013-05-18 06:49:00,
2013-05-18 02:59:00,75.7,68.0,29.70,SSW,202,4.5,4.5,77,0.00,,---,0.88,VWS V13.01,2013-05-18 06:59:00,
2013-05-18 03:04:00,75.7,68.0,29.70,SSE,158,0.0,4.5,77,0.00,,---,0.88,VWS V13.01,2013-05-18 07:04:00,
2013-05-18 03:14:00,75.7,68.0,29.70,SE,135,0.0,0.0,77,0.00,,---,0.88,VWS V13.01,2013-05-18 07:14:00,
2013-05-18 03:19:00,75.7,68.0,29.70,SSE,158,0.0,0.0,77,0.00,,---,0.88,VWS V13.01,2013-05-18 07:19:00,
2013-05-18 03:29:00,75.9,68.2,29.70,SSE,158,0.0,0.0,77,0.00,,---,0.88,VWS V13.01,2013-05-18 07:29:00,
2013-05-18 03:34:00,75.9,68.2,29.70,SSE,158,0.0,0.0,77,0.00,,---,0.88,VWS V13.01,2013-05-18 07:34:00,
2013-05-18 03:45:00,75.9,68.2,29.69,SSE,158,0.0,0.0,77,0.00,,---,0.88,VWS V13.01,2013-05-18 07:45:00,
2013-05-18 03:54:00,75.7,68.0,29.69,SSE,158,0.0,0.0,77,0.00,,---,0.88,VWS V13.01,2013-05-18 07:54:00,
2013-05-18 04:04:00,75.6,67.8,29.69,SSE,158,0.0,0.0,77,0.00,,---,0.88,VWS V13.01,2013-05-18 08:04:00,
2013-05-18 04:09:00,75.6,67.8,29.69,SSE,158,0.0,0.0,77,0.00,,---,0.88,VWS V13.01,2013-05-18 08:09:00,
2013-05-18 04:19:00,75.4,68.1,29.69,SSE,158,0.0,0.0,78,0.00,,---,0.88,VWS V13.01,2013-05-18 08:19:00,
2013-05-18 04:24:00,75.4,68.1,29.69,SSE,158,0.0,0.0,78,0.00,,---,0.88,VWS V13.01,2013-05-18 08:24:00,
2013-05-18 04:34:00,75.4,68.1,29.69,SSE,158,0.0,0.0,78,0.00,,---,0.88,VWS V13.01,2013-05-18 08:34:00,
2013-05-18 04:39:00,75.4,68.1,29.69,SSE,158,0.0,0.0,78,0.00,,---,0.88,VWS V13.01,2013-05-18 08:39:00,
2013-05-18 04:44:00,75.4,68.1,29.70,SSE,158,0.0,0.0,78,0.00,,---,0.88,VWS V13.01,2013-05-18 08:44:00,
2013-05-18 04:54:00,75.6,68.2,29.70,SSE,158,0.0,0.0,78,0.00,,---,0.88,VWS V13.01,2013-05-18 08:54:00,
2013-05-18 05:04:00,75.6,68.6,29.70,SSE,158,1.1,1.1,79,0.00,,---,0.88,VWS V13.01,2013-05-18 09:04:00,
2013-05-18 05:14:00,75.7,68.4,29.70,SSE,158,0.0,0.0,78,0.00,,---,0.88,VWS V13.01,2013-05-18 09:14:00,
2013-05-18 05:24:00,75.9,68.6,29.70,SSE,158,0.0,0.0,78,0.00,,---,0.88,VWS V13.01,2013-05-18 09:24:00,
2013-05-18 05:29:00,75.9,68.6,29.70,SSE,158,0.0,0.0,78,0.00,,---,0.88,VWS V13.01,2013-05-18 09:29:00,
2013-05-18 05:39:00,75.9,68.6,29.71,SSE,158,0.0,0.0,78,0.00,,---,0.88,VWS V13.01,2013-05-18 09:39:00,
2013-05-18 05:49:00,75.9,68.6,29.71,SE,135,0.0,0.0,78,0.00,,---,0.88,VWS V13.01,2013-05-18 09:49:00,
2013-05-18 05:59:00,75.9,68.6,29.71,SE,135,0.0,0.0,78,0.00,,---,0.88,VWS V13.01,2013-05-18 09:59:00,
2013-05-18 06:04:00,75.9,68.6,29.71,SSE,158,0.0,0.0,78,0.00,,---,0.88,VWS V13.01,2013-05-18 10:04:00,
2013-05-18 06:09:00,75.9,68.6,29.71,South,180,0.0,0.0,78,0.00,,---,0.88,VWS V13.01,2013-05-18 10:09:00,
2013-05-18 06:14:00,75.9,68.6,29.71,South,180,0.0,0.0,78,0.00,,---,0.88,VWS V13.01,2013-05-18 10:14:00,
2013-05-18 06:24:00,75.7,68.4,29.71,South,180,0.0,0.0,78,0.00,,---,0.88,VWS V13.01,2013-05-18 10:24:00,
2013-05-18 06:34:00,75.7,68.4,29.72,South,180,0.0,0.0,78,0.00,,---,0.88,VWS V13.01,2013-05-18 10:34:00,
2013-05-18 06:44:00,75.6,68.2,29.72,South,180,0.0,0.0,78,0.00,,---,0.88,VWS V13.01,2013-05-18 10:44:00,
2013-05-18 06:54:00,75.4,68.1,29.72,South,180,0.0,0.0,78,0.00,,---,0.88,VWS V13.01,2013-05-18 10:54:00,
2013-05-18 07:04:00,75.0,67.7,29.73,South,180,0.0,0.0,78,0.00,,---,0.88,VWS V13.01,2013-05-18 11:04:00,
2013-05-18 07:09:00,75.0,67.7,29.72,South,180,0.0,0.0,78,0.00,,---,0.88,VWS V13.01,2013-05-18 11:09:00,
2013-05-18 07:14:00,75.0,67.7,29.73,South,180,0.0,0.0,78,0.00,,---,0.88,VWS V13.01,2013-05-18 11:14:00,
2013-05-18 07:24:00,75.0,67.7,29.73,South,180,0.0,0.0,78,0.00,,---,0.88,VWS V13.01,2013-05-18 11:24:00,
2013-05-18 07:29:00,75.0,68.1,29.73,South,180,0.0,0.0,79,0.00,,---,0.88,VWS V13.01,2013-05-18 11:29:00,
2013-05-18 07:34:00,75.0,68.1,29.73,South,180,0.0,0.0,79,0.00,,---,0.88,VWS V13.01,2013-05-18 11:34:00,
2013-05-18 07:39:00,75.2,68.2,29.73,South,180,0.0,0.0,79,0.00,,---,0.88,VWS V13.01,2013-05-18 11:39:00,
2013-05-18 07:49:00,75.9,68.9,29.73,South,180,0.0,0.0,79,0.00,,---,0.88,VWS V13.01,2013-05-18 11:49:00,
2013-05-18 07:54:00,76.6,70.0,29.73,South,180,0.0,0.0,80,0.00,,---,0.88,VWS V13.01,2013-05-18 11:54:00,
2013-05-18 08:04:00,77.9,70.9,29.73,SSE,158,0.0,0.0,79,0.00,,---,0.88,VWS V13.01,2013-05-18 12:04:00,
2013-05-18 08:14:00,78.6,71.6,29.73,SSE,158,0.0,0.0,79,0.00,,---,0.88,VWS V13.01,2013-05-18 12:14:00,
2013-05-18 08:24:00,79.2,71.3,29.74,SE,135,0.0,0.9,77,0.00,,---,0.88,VWS V13.01,2013-05-18 12:24:00,
2013-05-18 08:34:00,80.1,71.8,29.74,ESE,112,4.5,4.5,76,0.00,,---,0.88,VWS V13.01,2013-05-18 12:34:00,
2013-05-18 08:39:00,80.1,71.8,29.74,ESE,112,4.5,4.5,76,0.00,,---,0.88,VWS V13.01,2013-05-18 12:39:00,
2013-05-18 08:49:00,80.2,71.6,29.75,ESE,112,2.7,2.7,75,0.00,,---,0.88,VWS V13.01,2013-05-18 12:49:00,
2013-05-18 08:54:00,79.9,70.9,29.75,ESE,112,2.7,2.7,74,0.00,,---,0.88,VWS V13.01,2013-05-18 12:54:00,
2013-05-18 09:04:00,81.0,71.5,29.75,ESE,112,1.3,2.7,73,0.00,,---,0.88,VWS V13.01,2013-05-18 13:04:00,
2013-05-18 09:09:00,81.1,71.7,29.75,ESE,112,4.7,4.7,73,0.00,,---,0.88,VWS V13.01,2013-05-18 13:09:00,
2013-05-18 09:19:00,82.0,71.7,29.74,ESE,112,2.9,4.3,71,0.00,,---,0.88,VWS V13.01,2013-05-18 13:19:00,
2013-05-18 09:24:00,82.0,71.7,29.74,ESE,112,2.0,2.9,71,0.00,,---,0.88,VWS V13.01,2013-05-18 13:24:00,
2013-05-18 09:29:00,82.2,71.9,29.75,East,90,7.2,7.2,71,0.00,,---,0.88,VWS V13.01,2013-05-18 13:29:00,
2013-05-18 09:39:00,83.1,72.3,29.75,SE,135,6.3,6.3,70,0.00,,---,0.88,VWS V13.01,2013-05-18 13:39:00,
2013-05-18 09:49:00,83.5,72.7,29.75,SSE,158,2.9,2.9,70,0.00,,---,0.88,VWS V13.01,2013-05-18 13:49:00,
2013-05-18 09:54:00,84.0,73.2,29.75,SSE,158,0.0,2.9,70,0.00,,---,0.88,VWS V13.01,2013-05-18 13:54:00,
2013-05-18 10:04:00,84.4,72.7,29.75,SE,135,0.7,1.3,68,0.00,,---,0.88,VWS V13.01,2013-05-18 14:04:00,
2013-05-18 10:09:00,84.6,72.8,29.75,SSE,158,0.0,0.7,68,0.00,,---,0.88,VWS V13.01,2013-05-18 14:09:00,
2013-05-18 10:19:00,85.1,73.4,29.74,SE,135,1.1,1.1,68,0.00,,---,0.88,VWS V13.01,2013-05-18 14:19:00,
2013-05-18 10:24:00,85.5,72.8,29.74,SE,135,9.8,9.8,66,0.00,,---,0.88,VWS V13.01,2013-05-18 14:24:00,
2013-05-18 10:34:00,85.3,73.1,29.75,SSE,158,6.5,7.6,67,0.00,,---,0.88,VWS V13.01,2013-05-18 14:34:00,
2013-05-18 10:39:00,85.6,73.4,29.75,SE,135,0.0,6.5,67,0.00,,---,0.88,VWS V13.01,2013-05-18 14:39:00,
2013-05-18 10:49:00,86.0,73.3,29.74,SE,135,1.3,7.4,66,0.00,,---,0.88,VWS V13.01,2013-05-18 14:49:00,
2013-05-18 10:59:00,86.2,73.5,29.74,East,90,4.7,4.7,66,0.00,,---,0.88,VWS V13.01,2013-05-18 14:59:00,
2013-05-18 11:09:00,86.4,73.7,29.75,SE,135,0.0,2.9,66,0.00,,---,0.88,VWS V13.01,2013-05-18 15:09:00,
2013-05-18 11:14:00,86.7,73.6,29.75,SSE,158,6.0,6.0,65,0.00,,---,0.88,VWS V13.01,2013-05-18 15:14:00,
2013-05-18 11:24:00,86.9,73.3,29.75,SE,135,0.0,4.5,64,0.00,,---,0.88,VWS V13.01,2013-05-18 15:24:00,
2013-05-18 11:29:00,87.1,73.0,29.75,SSE,158,0.7,4.7,63,0.00,,---,0.88,VWS V13.01,2013-05-18 15:29:00,
2013-05-18 11:39:00,86.2,72.1,29.75,ENE,68,7.6,7.6,63,0.00,,---,0.88,VWS V13.01,2013-05-18 15:39:00,
2013-05-18 11:44:00,86.2,72.6,29.75,SE,135,6.9,7.6,64,0.00,,---,0.88,VWS V13.01,2013-05-18 15:44:00,
2013-05-18 11:54:00,86.2,72.6,29.74,ESE,112,3.1,4.5,64,0.00,,---,0.88,VWS V13.01,2013-05-18 15:54:00,
2013-05-18 11:59:00,86.2,72.6,29.75,ESE,112,0.4,7.4,64,0.00,,---,0.88,VWS V13.01,2013-05-18 15:59:00,
2013-05-18 12:04:00,85.8,72.2,29.75,SE,135,5.6,7.2,64,0.00,,---,0.88,VWS V13.01,2013-05-18 16:04:00,
2013-05-18 12:14:00,86.7,73.1,29.75,East,90,3.8,3.8,64,0.00,,---,0.88,VWS V13.01,2013-05-18 16:14:00,
2013-05-18 12:24:00,87.1,72.5,29.74,East,90,11.9,11.9,62,0.00,,---,0.88,VWS V13.01,2013-05-18 16:24:00,
2013-05-18 12:29:00,87.1,72.5,29.74,ESE,112,6.0,11.9,62,0.00,,---,0.88,VWS V13.01,2013-05-18 16:29:00,
2013-05-18 12:39:00,86.5,72.0,29.74,ESE,112,0.7,7.8,62,0.00,,---,0.88,VWS V13.01,2013-05-18 16:39:00,
2013-05-18 12:44:00,86.4,72.3,29.74,ESE,112,8.7,8.7,63,0.00,,---,0.88,VWS V13.01,2013-05-18 16:44:00,
2013-05-18 12:54:00,86.2,72.6,29.73,SSE,158,2.5,5.1,64,0.00,,---,0.88,VWS V13.01,2013-05-18 16:54:00,
2013-05-18 13:04:00,86.9,72.8,29.73,ENE,68,1.6,8.7,63,0.00,,---,0.88,VWS V13.01,2013-05-18 17:04:00,
2013-05-18 13:14:00,86.9,72.8,29.73,ESE,112,6.7,10.7,63,0.00,,---,0.88,VWS V13.01,2013-05-18 17:14:00,
2013-05-18 13:24:00,86.5,72.0,29.73,ESE,112,7.4,13.0,62,0.00,,---,0.88,VWS V13.01,2013-05-18 17:24:00,
2013-05-18 13:34:00,86.5,72.0,29.72,ESE,112,9.6,9.6,62,0.00,,---,0.88,VWS V13.01,2013-05-18 17:34:00,
2013-05-18 13:44:00,87.1,72.0,29.73,East,90,10.3,10.3,61,0.00,,---,0.88,VWS V13.01,2013-05-18 17:44:00,
2013-05-18 13:49:00,87.1,72.5,29.72,ENE,68,7.4,10.3,62,0.00,,---,0.88,VWS V13.01,2013-05-18 17:49:00,
2013-05-18 13:59:00,87.1,72.0,29.72,ESE,112,5.4,7.4,61,0.00,,---,0.88,VWS V13.01,2013-05-18 17:59:00,
2013-05-18 14:04:00,87.1,72.5,29.72,SE,135,7.8,7.8,62,0.00,,---,0.88,VWS V13.01,2013-05-18 18:04:00,
2013-05-18 14:14:00,87.1,72.0,29.72,SE,135,8.1,11.4,61,0.00,,---,0.88,VWS V13.01,2013-05-18 18:14:00,
2013-05-18 14:24:00,87.3,72.7,29.72,ESE,112,1.6,12.3,62,0.00,,---,0.88,VWS V13.01,2013-05-18 18:24:00,
2013-05-18 14:34:00,87.3,72.7,29.71,ESE,112,8.7,8.7,62,0.00,,---,0.88,VWS V13.01,2013-05-18 18:34:00,
2013-05-18 14:39:00,86.5,72.0,29.71,WSW,248,2.9,8.7,62,0.00,,---,0.88,VWS V13.01,2013-05-18 18:39:00,
2013-05-18 14:44:00,86.4,71.8,29.71,SE,135,0.0,2.9,62,0.00,,---,0.88,VWS V13.01,2013-05-18 18:44:00,
2013-05-18 14:54:00,86.4,71.8,29.71,SE,135,6.5,6.5,62,0.00,,---,0.88,VWS V13.01,2013-05-18 18:54:00,
2013-05-18 14:59:00,86.4,72.3,29.71,ESE,112,0.0,6.5,63,0.00,,---,0.88,VWS V13.01,2013-05-18 18:59:00,
2013-05-18 15:09:00,86.4,71.8,29.70,WSW,248,5.8,5.8,62,0.00,,---,0.88,VWS V13.01,2013-05-18 19:09:00,
2013-05-18 15:19:00,86.7,72.6,29.71,WSW,248,0.0,0.7,63,0.00,,---,0.88,VWS V13.01,2013-05-18 19:19:00,
2013-05-18 15:29:00,86.4,72.3,29.70,ESE,112,2.9,8.7,63,0.00,,---,0.88,VWS V13.01,2013-05-18 19:29:00,
2013-05-18 15:39:00,86.7,72.6,29.70,WSW,248,2.7,2.7,63,0.00,,---,0.88,VWS V13.01,2013-05-18 19:39:00,
2013-05-18 15:44:00,87.1,72.5,29.70,WSW,248,4.5,7.8,62,0.00,,---,0.88,VWS V13.01,2013-05-18 19:44:00,
2013-05-18 15:54:00,86.7,71.7,29.70,WSW,248,10.7,10.7,61,0.00,,---,0.88,VWS V13.01,2013-05-18 19:54:00,
2013-05-18 16:04:00,86.5,71.5,29.70,WSW,248,8.5,8.5,61,0.00,,---,0.88,VWS V13.01,2013-05-18 20:04:00,
2013-05-18 16:09:00,86.5,72.0,29.70,WSW,248,9.4,9.4,62,0.00,,---,0.88,VWS V13.01,2013-05-18 20:09:00,
2013-05-18 16:14:00,86.4,71.3,29.69,South,180,0.0,9.4,61,0.00,,---,0.88,VWS V13.01,2013-05-18 20:14:00,
2013-05-18 16:24:00,85.3,70.8,29.70,SE,135,2.9,6.5,62,0.00,,---,0.88,VWS V13.01,2013-05-18 20:24:00,
2013-05-18 16:34:00,84.9,70.9,29.68,WSW,248,11.2,11.2,63,0.00,,---,0.88,VWS V13.01,2013-05-18 20:34:00,
2013-05-18 16:39:00,85.1,71.1,29.68,WSW,248,1.8,11.2,63,0.00,,---,0.88,VWS V13.01,2013-05-18 20:39:00,
2013-05-18 16:49:00,85.3,70.8,29.69,WSW,248,7.8,7.8,62,0.00,,---,0.88,VWS V13.01,2013-05-18 20:49:00,
2013-05-18 16:59:00,84.4,70.4,29.68,ESE,112,0.0,8.7,63,0.00,,---,0.88,VWS V13.01,2013-05-18 20:59:00,
2013-05-18 17:04:00,83.7,70.2,29.69,SSE,158,3.4,4.5,64,0.00,,---,0.88,VWS V13.01,2013-05-18 21:04:00,
2013-05-18 17:14:00,82.8,69.3,29.68,ESE,112,4.9,8.7,64,0.00,,---,0.88,VWS V13.01,2013-05-18 21:14:00,
2013-05-18 17:19:00,82.2,69.3,29.68,SE,135,6.0,6.0,65,0.00,,---,0.88,VWS V13.01,2013-05-18 21:19:00,
2013-05-18 17:29:00,81.9,69.4,29.68,SSE,158,0.0,5.4,66,0.00,,---,0.88,VWS V13.01,2013-05-18 21:29:00,
2013-05-18 17:39:00,81.7,69.2,29.69,East,90,3.6,3.6,66,0.00,,---,0.88,VWS V13.01,2013-05-18 21:39:00,
2013-05-18 17:44:00,81.7,69.7,29.68,East,90,5.8,5.8,67,0.00,,---,0.88,VWS V13.01,2013-05-18 21:44:00,
2013-05-18 17:54:00,81.5,69.5,29.69,SE,135,2.7,2.7,67,0.00,,---,0.88,VWS V13.01,2013-05-18 21:54:00,
2013-05-18 17:59:00,81.5,69.5,29.69,SE,135,4.0,4.0,67,0.00,,---,0.88,VWS V13.01,2013-05-18 21:59:00,
2013-05-18 18:09:00,81.5,69.5,29.69,WSW,248,1.3,1.3,67,0.00,,---,0.88,VWS V13.01,2013-05-18 22:09:00,
2013-05-18 18:14:00,82.8,70.2,29.69,SE,135,8.1,8.1,66,0.00,,---,0.88,VWS V13.01,2013-05-18 22:14:00,
2013-05-18 18:24:00,82.6,70.1,29.69,SE,135,0.0,7.8,66,0.00,,---,0.88,VWS V13.01,2013-05-18 22:24:00,
2013-05-18 18:29:00,82.2,69.7,29.69,ESE,112,7.4,7.4,66,0.00,,---,0.88,VWS V13.01,2013-05-18 22:29:00,
2013-05-18 18:39:00,81.7,69.7,29.69,ESE,112,1.3,7.4,67,0.00,,---,0.88,VWS V13.01,2013-05-18 22:39:00,
2013-05-18 18:49:00,81.3,69.3,29.69,East,90,0.7,7.2,67,0.00,,---,0.88,VWS V13.01,2013-05-18 22:49:00,
2013-05-18 18:54:00,81.1,69.2,29.69,SSE,158,0.0,0.7,67,0.00,,---,0.88,VWS V13.01,2013-05-18 22:54:00,
2013-05-18 19:04:00,81.0,69.0,29.69,ESE,112,0.0,0.0,67,0.00,,---,0.88,VWS V13.01,2013-05-18 23:04:00,
2013-05-18 19:09:00,81.0,69.0,29.69,East,90,0.7,0.7,67,0.00,,---,0.88,VWS V13.01,2013-05-18 23:09:00,
2013-05-18 19:19:00,80.8,69.2,29.69,ENE,68,0.4,0.4,68,0.00,,---,0.88,VWS V13.01,2013-05-18 23:19:00,
2013-05-18 19:29:00,80.6,69.1,29.70,ESE,112,0.4,1.6,68,0.00,,---,0.88,VWS V13.01,2013-05-18 23:29:00,
2013-05-18 19:39:00,80.6,69.1,29.70,ENE,68,6.5,6.5,68,0.00,,---,0.88,VWS V13.01,2013-05-18 23:39:00,
2013-05-18 19:44:00,80.4,68.5,29.71,SE,135,2.0,6.5,67,0.00,,---,0.88,VWS V13.01,2013-05-18 23:44:00,
2013-05-18 19:54:00,80.2,68.3,29.70,SE,135,5.6,5.6,67,0.00,,---,0.88,VWS V13.01,2013-05-18 23:54:00,
2013-05-18 19:59:00,80.1,68.6,29.71,ESE,112,4.5,5.6,68,0.00,,---,0.88,VWS V13.01,2013-05-18 23:59:00,
2013-05-18 20:04:00,79.9,67.9,29.70,SE,135,0.7,4.5,67,0.00,,---,0.82,VWS V13.01,2013-05-19 00:04:00,
2013-05-18 20:14:00,79.5,68.0,29.71,ENE,68,2.7,2.9,68,0.00,,---,0.82,VWS V13.01,2013-05-19 00:14:00,
2013-05-18 20:19:00,79.5,68.0,29.71,ENE,68,2.7,2.7,68,0.00,,---,0.82,VWS V13.01,2013-05-19 00:19:00,
2013-05-18 20:29:00,79.5,68.0,29.71,ESE,112,1.6,6.9,68,0.00,,---,0.82,VWS V13.01,2013-05-19 00:29:00,
2013-05-18 20:39:00,79.3,68.3,29.72,East,90,0.0,0.0,69,0.00,,---,0.82,VWS V13.01,2013-05-19 00:39:00,
2013-05-18 20:44:00,79.3,67.9,29.72,ESE,112,0.0,3.4,68,0.00,,---,0.82,VWS V13.01,2013-05-19 00:44:00,
2013-05-18 20:54:00,79.3,68.3,29.72,SSE,158,3.1,3.1,69,0.00,,---,0.82,VWS V13.01,2013-05-19 00:54:00,
2013-05-18 21:04:00,79.3,68.3,29.72,SE,135,6.0,6.0,69,0.00,,---,0.82,VWS V13.01,2013-05-19 01:04:00,
2013-05-18 21:14:00,79.2,68.1,29.72,South,180,0.0,1.6,69,0.00,,---,0.82,VWS V13.01,2013-05-19 01:14:00,
2013-05-18 21:24:00,79.2,68.1,29.72,SSE,158,1.6,2.7,69,0.00,,---,0.82,VWS V13.01,2013-05-19 01:24:00,
2013-05-18 21:34:00,79.0,67.9,29.72,SE,135,0.0,3.8,69,0.00,,---,0.82,VWS V13.01,2013-05-19 01:34:00,
2013-05-18 21:39:00,79.0,68.4,29.72,South,180,5.8,5.8,70,0.00,,---,0.82,VWS V13.01,2013-05-19 01:39:00,
2013-05-18 21:44:00,79.0,68.4,29.72,SSE,158,0.0,5.8,70,0.00,,---,0.82,VWS V13.01,2013-05-19 01:44:00,
2013-05-18 21:54:00,78.8,68.2,29.73,SSE,158,2.5,2.5,70,0.00,,---,0.82,VWS V13.01,2013-05-19 01:54:00,
2013-05-18 21:59:00,78.8,68.2,29.73,SSE,158,5.6,5.6,70,0.00,,---,0.82,VWS V13.01,2013-05-19 01:59:00,
2013-05-18 22:09:00,78.8,68.2,29.73,SE,135,0.0,6.9,70,0.00,,---,0.65,VWS V13.01,2013-05-19 02:09:00,
2013-05-18 22:14:00,78.6,68.0,29.73,SSE,158,4.3,4.5,70,0.00,,---,0.65,VWS V13.01,2013-05-19 02:14:00,
2013-05-18 22:24:00,78.6,68.4,29.73,ESE,112,0.0,1.3,71,0.00,,---,0.65,VWS V13.01,2013-05-19 02:24:00,
2013-05-18 22:34:00,78.6,68.0,29.73,SSE,158,0.0,0.0,70,0.00,,---,0.65,VWS V13.01,2013-05-19 02:34:00,
2013-05-18 22:39:00,78.6,68.0,29.73,ESE,112,0.7,0.7,70,0.00,,---,0.65,VWS V13.01,2013-05-19 02:39:00,
2013-05-18 22:49:00,78.6,68.0,29.73,East,90,3.6,3.6,70,0.00,,---,0.65,VWS V13.01,2013-05-19 02:49:00,
2013-05-18 22:59:00,78.6,68.0,29.73,SE,135,0.9,0.9,70,0.00,,---,0.65,VWS V13.01,2013-05-19 02:59:00,
2013-05-18 23:04:00,78.6,68.0,29.73,East,90,2.9,2.9,70,0.00,,---,0.31,VWS V13.01,2013-05-19 03:04:00,
2013-05-18 23:14:00,78.6,68.0,29.73,ESE,112,0.0,2.9,70,0.00,,---,0.31,VWS V13.01,2013-05-19 03:14:00,
2013-05-18 23:24:00,78.6,68.4,29.73,ESE,112,0.2,2.9,71,0.00,,---,0.31,VWS V13.01,2013-05-19 03:24:00,
2013-05-18 23:34:00,78.4,67.8,29.73,ESE,112,0.0,1.1,70,0.00,,---,0.31,VWS V13.01,2013-05-19 03:34:00,
2013-05-18 23:44:00,78.4,67.8,29.73,SE,135,0.4,2.7,70,0.00,,---,0.31,VWS V13.01,2013-05-19 03:44:00,
2013-05-18 23:49:00,78.4,67.8,29.73,ESE,112,4.9,4.9,70,0.00,,---,0.31,VWS V13.01,2013-05-19 03:49:00,
2013-05-18 23:59:00,78.3,67.7,29.73,SE,135,0.0,3.8,70,0.00,,---,0.31,VWS V13.01,2013-05-19 03:59:00,